Bellingham, Washington, United States (98225)
Lat: 48.76N, Lon: 122.49W
Wx Zone: WAZ503
Local Info
Past Weather Observations for Monday, April 25, 2016

NOTE: This archive is for the closest National Weather Service station to Bellingham. Information may differ from the station used for current weather conditions.

Click here for Long-term Archive

Time Weather Temperature Dewpoint Humidity Pressure Winds Precip Visibility
23:53
Clear
45°F / 7°C 43°F / 6°C 93% 30.12 in
(1020 mb)
Calm - 10SM
22:53
Overcast
48°F / 9°C 43°F / 6°C 82% 30.12 in
(1020 mb)
SW 3.5 mph
(SW 6 kph)
- 10SM
21:53
Overcast
48°F / 9°C 45°F / 7°C 87% 30.12 in
(1020 mb)
SSE 3.5 mph
(SSE 6 kph)
- 10SM
20:53
Mostly Cloudy
46°F / 8°C 45°F / 7°C 93% 30.12 in
(1020 mb)
Calm - 10SM
19:53
Partly Cloudy
48°F / 9°C 45°F / 7°C 87% 30.09 in
(1019 mb)
Calm 0.00 in
(0.00 mm)
10SM
18:53
Overcast
54°F / 12°C 41°F / 5°C 63% 30.09 in
(1019 mb)
S 4.6 mph
(S 7 kph)
- 10SM
17:53
Partly Cloudy
54°F / 12°C 41°F / 5°C 63% 30.06 in
(1018 mb)
S 8.1 mph
(S 13 kph)
- 10SM
16:53
Clear
54°F / 12°C 43°F / 6°C 67% 30.06 in
(1018 mb)
S 9.2 mph
(S 15 kph)
- 10SM
15:53
Clear
54°F / 12°C 43°F / 6°C 67% 30.06 in
(1018 mb)
SSE 9.2 mph
(SSE 15 kph)
- 10SM
14:53
Partly Cloudy
54°F / 12°C 45°F / 7°C 72% 30.06 in
(1018 mb)
SSE 12.7 mph
(SSE 20 kph)
- 10SM
13:53
Partly Cloudy
54°F / 12°C 45°F / 7°C 72% 30.06 in
(1018 mb)
SSE 13.8 mph
(SSE 22 kph)
- 10SM
13:38
Partly Cloudy
52°F / 11°C 45°F / 7°C 77% 30.06 in
(1018 mb)
SSE 12.7 mph
(SSE 20 kph)
- 10SM
13:00
Overcast
52°F / 11°C 45°F / 7°C 77% 30.06 in
(1018 mb)
SE 10.4 mph
(SE 17 kph)
- 10SM
12:53
Overcast
52°F / 11°C 45°F / 7°C 77% 30.06 in
(1018 mb)
SE 10.4 mph
(SE 17 kph)
- 10SM
11:53
Overcast
50°F / 10°C 45°F / 7°C 82% 30.06 in
(1018 mb)
S 5.8 mph
(S 9 kph)
0.00 in
(0.00 mm)
10SM
10:53
Overcast
Light Rain
48°F / 9°C 45°F / 7°C 87% 30.04 in
(1017 mb)
ESE 9.2 mph
(ESE 15 kph)
0.01 in
(0.25 mm)
9SM
10:51
Overcast
Light Rain
48°F / 9°C 45°F / 7°C 87% 30.04 in
(1017 mb)
ESE 10.4 mph
(ESE 17 kph)
0.01 in
(0.25 mm)
9SM
10:40
Overcast
Light Rain
50°F / 10°C 45°F / 7°C 82% 30.04 in
(1017 mb)
SE 10.4 mph
(SE 17 kph)
0.00 in
(0.00 mm)
10SM
10:21
Overcast
52°F / 11°C 46°F / 8°C 82% 30.04 in
(1017 mb)
SE 8.1 mph
(SE 13 kph)
0.00 in
(0.00 mm)
10SM
10:00
Overcast
52°F / 11°C 46°F / 8°C 82% 30.04 in
(1017 mb)
SE 5.8 mph
(SE 9 kph)
- 10SM
09:53
Overcast
52°F / 11°C 46°F / 8°C 82% 30.04 in
(1017 mb)
SE 4.6 mph
(SE 7 kph)
0.03 in
(0.76 mm)
10SM
08:53
Overcast
Light Rain
48°F / 9°C 45°F / 7°C 87% 30.01 in
(1016 mb)
Calm 0.09 in
(2.29 mm)
6SM
08:19
Overcast
Light Rain
48°F / 9°C 46°F / 8°C 94% 30.01 in
(1016 mb)
Calm 0.05 in
(1.27 mm)
5SM
08:11
Overcast
Rain
50°F / 10°C 46°F / 8°C 88% 30.01 in
(1016 mb)
Variable 3.5 mph
(Variable 6 kph)
0.04 in
(1.02 mm)
2SM
07:53
Overcast
52°F / 11°C 48°F / 9°C 88% 30.01 in
(1016 mb)
S 5.8 mph
(S 9 kph)
- 10SM
06:53
Overcast
52°F / 11°C 46°F / 8°C 82% 29.98 in
(1015 mb)
SSE 9.2 mph
(SSE 15 kph)
- 10SM
05:53
Overcast
50°F / 10°C 46°F / 8°C 88% 29.98 in
(1015 mb)
S 8.1 mph
(S 13 kph)
- 10SM
05:36
Mostly Cloudy
50°F / 10°C 46°F / 8°C 88% 29.98 in
(1015 mb)
SSE 6.9 mph
(SSE 11 kph)
- 10SM
04:53
Partly Cloudy
50°F / 10°C 46°F / 8°C 88% 29.98 in
(1015 mb)
SSE 3.5 mph
(SSE 6 kph)
- 10SM
03:53
Clear
50°F / 10°C 46°F / 8°C 88% 29.98 in
(1015 mb)
S 4.6 mph
(S 7 kph)
- 10SM
02:53
Overcast
52°F / 11°C 46°F / 8°C 82% 29.98 in
(1015 mb)
SSE 8.1 mph
(SSE 13 kph)
0.00 in
(0.00 mm)
10SM
02:32
Overcast
Light Rain
52°F / 11°C 48°F / 9°C 88% 29.98 in
(1015 mb)
SSE 6.9 mph
(SSE 11 kph)
0.00 in
(0.00 mm)
10SM
01:53
Overcast
Light Rain
52°F / 11°C 48°F / 9°C 88% 29.98 in
(1015 mb)
S 5.8 mph
(S 9 kph)
0.02 in
(0.51 mm)
10SM
01:08
Overcast
Light Rain
52°F / 11°C 48°F / 9°C 88% 29.98 in
(1015 mb)
S 8.1 mph
(S 13 kph)
0.01 in
(0.25 mm)
10SM
00:53
Overcast
Light Rain
52°F / 11°C 48°F / 9°C 88% 29.98 in
(1015 mb)
S 6.9 mph
(S 11 kph)
0.01 in
(0.25 mm)
10SM
00:30
Overcast
Light Rain
52°F / 11°C 48°F / 9°C 88% 29.98 in
(1015 mb)
S 4.6 mph
(S 7 kph)
0.01 in
(0.25 mm)
10SM
Time Weather Temperature Dewpoint Humidity Pressure Winds Precip Visibility


Weather for websites

WeatherForYou.com, LLC is not responsible for any damages or problems caused by this service. Current weather conditions are obtained from the closest station including government and personal stations which may have varying degrees of accuracy. Weather forecasts are derived from the NOAA NDFD. Like all things, this site belongs to Jesus Christ... He just trusts us to maintain it. If you have any questions or comments email webmaster@weatherforyou.com

Copyright © 2016, WeatherForYou.com LLC. All rights reserved.